DELTA 1 DEB, 42563

Orbit data source: Space-Track

DELTA 1 DEB, 42563 is space debris in SSO originally from a launch on Sun, 23 Jul 1972 UTC launched from the Air Force Western Test Range (AFWTR). Debris objects in space refer to the collection of defunct objects orbiting the Earth. Examples of debris include non-operational satellites, rocket bodies, and fragments generated from explosions, collisions, or faulty payload assembly.

Loading next visibility...
Identifier
42563, 1972-058JW
Orbit
SSO
Country
Flag of USUS
Related business
Manufacturer
Unknown
Mission
Spacecraft
Bus & Motor
Unknown
Mass
Unknown
Launch date (UTC)
1972-07-23 (53 years ago)
Launch vehicle
Unknown
Launch site
Air Force Western Test Range (AFWTR)
Object type
Payload
Rocket body
Debris
Shape & HBR
Unknown shape, 0.1 m
Radar Cross Section
Small (<0.1 m²)

Expand to show TLE details & history
Last TLE update: 21 hours ago

TLE from 21 hours ago
0 DELTA 1 DEB
1 42563U 72058JW  25355.09692600  .00000356  00000-0  33033-3 0  9993
2 42563  98.8144 122.4705 0249251 173.7919 186.6420 13.74966072599237
Epoch: 2025-12-21T02:19Z
TLE epoch observation values (Epoch: 2025-12-21T02:19:34.406Z)
Latitude
-0.00006°
Longitude
-2.33712°
Altitude
1,166.957 km
Speed
7.179 km/s
True Right ascension
08h 09m 52s
True Declination
0° 00' 00"
Sunlit
Object was in full shadow at epoch
Visualization orbit readout
Latitude
Unknown
Longitude
Unknown
Altitude
Unknown
Speed
Unknown
Apparent Right ascension
Unknown
Apparent Declination
Unknown
Sunlit
N/A
Visualization observer readout
Local Sidereal Time
22:37:00
Azimuth
Unknown
Elevation
Unknown
Doppler factor
Unknown
Orbital elements
Apogee altitude
1,162.395 km
Perigee altitude
795.64 km
Semi-major axis
7,357.154 km
Eccentricity
0.02493
Inclination
98.8144°
RAAN
122.4705°
Arg. of periapsis
173.7919°
True anomaly
186.32157°
Mean anomaly
186.642°
Eccentric anomaly
186.48081°
Mean motion
3.43937 °/min
Orbital period
104.67 mins
BSTAR
0.00033033
Loading maneuver chart data...
Computing Atmospheric mass density...

Documentation

Showing up to 5 results
|